FW9098 Weather Reports


time (UTC)temp
C
wind
direction
speed
KPH
gust
KPH
rain 1hr
cm
rain 24hr
cm
rain mn
cm
humidity
%
barometer
mb
20260507185534 13 132 0.0 3.2 0.00 0.08 0.08 83 1013.8
20260507185034 13 0 0.0 1.6 0.00 0.08 0.08 82 1013.8
20260507184551 13 0 0.0 3.2 0.00 0.08 0.08 83 1013.7
20260507184035 13 0 0.0 4.8 0.00 0.08 0.08 82 1013.6
20260507183536 13 0 0.0 4.8 0.00 0.08 0.08 82 1013.7
20260507183056 13 132 1.6 4.8 0.00 0.08 0.08 82 1013.6
20260507182536 13 0 1.6 4.8 0.00 0.08 0.08 82 1013.6
20260507182035 13 0 0.0 4.8 0.00 0.05 0.05 83 1013.6
20260507181546 13 0 0.0 4.8 0.00 0.05 0.05 83 1013.5
20260507181034 13 111 0.0 4.8 0.00 0.05 0.05 83 1013.6
20260507180534 13 110 1.6 9.7 0.00 0.05 0.05 82 1013.4
20260507180101 13 110 1.6 12.9 0.00 0.05 0.05 82 1013.6
20260507175535 13 117 1.6 14.5 0.00 0.05 0.05 82 1013.6
20260507175035 13 109 3.2 17.7 0.00 0.05 0.05 81 1013.6
20260507174549 14 136 6.4 17.7 0.00 0.05 0.05 80 1013.7
20260507174032 14 143 3.2 12.9 0.00 0.05 0.05 79 1013.6
20260507173532 15 142 3.2 12.9 0.00 0.05 0.05 78 1013.5
20260507173053 15 118 1.6 11.3 0.00 0.05 0.05 76 1013.4
20260507172533 15 115 3.2 12.9 0.00 0.05 0.05 75 1013.4
20260507172035 15 121 3.2 12.9 0.03 0.05 0.05 74 1013.3
20260507171549 15 115 3.2 11.3 0.05 0.05 0.05 74 1013.1
20260507171036 15 142 3.2 8.0 0.05 0.05 0.05 75 1013.0
20260507170537 15 158 3.2 12.9 0.05 0.05 0.05 75 1013.0
20260507170049 15 119 1.6 12.9 0.05 0.05 0.05 74 1013.0
20260507165536 15 120 1.6 6.4 0.05 0.05 0.05 73 1012.8
20260507165037 15 119 1.6 6.4 0.05 0.05 0.05 72 1012.7
20260507164546 15 143 1.6 6.4 0.03 0.03 0.03 72 1012.7
20260507164036 15 0 1.6 6.4 0.03 0.03 0.03 73 1012.6
20260507163538 15 0 0.0 3.2 0.03 0.03 0.03 72 1012.7
20260507163051 16 186 0.0 9.7 0.03 0.03 0.03 71 1012.7
20260507162536 16 186 1.6 16.1 0.03 0.03 0.03 67 1012.7
20260507162038 16 198 4.8 16.1 0.00 0.00 0.00 63 1012.7
20260507161548 17 161 6.4 16.1 0.00 0.00 0.00 58 1012.6
20260507161035 17 201 4.8 16.1 0.00 0.00 0.00 56 1012.5
20260507160538 17 194 4.8 16.1 0.00 0.00 0.00 55 1012.4
20260507160116 17 193 8.0 19.3 0.00 0.00 0.00 54 1012.4
20260507155536 17 205 9.7 19.3 0.00 0.00 0.00 53 1012.3
20260507155040 17 171 11.3 19.3 0.00 0.00 0.00 54 1012.3
20260507154548 18 174 9.7 17.7 0.00 0.00 0.00 53 1012.3
20260507154037 18 111 3.2 11.3 0.00 0.00 0.00 50 1012.2
20260507153539 18 105 1.6 9.7 0.00 0.00 0.00 51 1012.2
20260507153051 18 175 3.2 11.3 0.00 0.00 0.00 52 1012.0
20260507152536 18 158 1.6 12.9 0.00 0.00 0.00 52 1012.0
20260507152035 18 111 4.8 12.9 0.00 0.00 0.00 52 1012.0
20260507151543 19 151 3.2 11.3 0.00 0.00 0.00 51 1012.0
20260507151035 19 166 4.8 11.3 0.00 0.00 0.00 50 1012.0
20260507150540 19 155 4.8 12.9 0.00 0.00 0.00 50 1011.9
20260507150052 19 116 4.8 12.9 0.00 0.00 0.00 50 1011.9
20260507145536 20 116 3.2 12.9 0.00 0.00 0.00 48 1012.0
20260507145037 20 144 3.2 11.3 0.00 0.00 0.00 48 1012.0
20260507144551 20 177 3.2 12.9 0.00 0.00 0.00 49 1011.8
20260507144036 21 115 1.6 16.1 0.00 0.00 0.00 48 1011.8
20260507143535 21 136 6.4 16.1 0.00 0.00 0.00 46 1011.9
20260507143048 20 107 4.8 17.7 0.00 0.00 0.00 47 1011.8
20260507142537 20 114 3.2 17.7 0.00 0.00 0.00 45 1011.9
20260507142037 21 119 4.8 17.7 0.00 0.00 0.00 43 1011.9
20260507141552 21 109 6.4 16.1 0.00 0.00 0.00 42 1011.9
20260507141037 21 146 6.4 17.7 0.00 0.00 0.00 42 1011.8
20260507140535 21 148 4.8 17.7 0.00 0.00 0.00 45 1011.8
20260507140106 21 150 4.8 14.5 0.00 0.00 0.00 45 1011.7
20260507135534 21 150 4.8 16.1 0.00 0.00 0.00 42 1011.8
20260507135037 22 126 4.8 16.1 0.00 0.00 0.00 45 1011.7
20260507134553 21 0 4.8 11.3 0.00 0.00 0.00 42 1011.8
20260507134034 22 162 3.2 11.3 0.00 0.00 0.00 46 1011.8
20260507133537 21 150 3.2 12.9 0.00 0.00 0.00 45 1011.9
20260507133051 21 94 1.6 12.9 0.00 0.00 0.00 45 1011.9
20260507132535 20 120 3.2 12.9 0.00 0.00 0.00 46 1011.9
20260507132040 20 150 0.0 4.8 0.00 0.00 0.00 47 1011.9
20260507131600 20 0 1.6 4.8 0.00 0.00 0.00 44 1012.1
20260507131037 21 138 0.0 6.4 0.00 0.00 0.00 44 1012.0
20260507130534 20 142 1.6 8.0 0.00 0.00 0.00 48 1012.0
20260507130052 19 0 0.0 8.0 0.00 0.00 0.00 47 1012.1
20260507125535 19 169 1.6 8.0 0.00 0.00 0.00 45 1012.0
20260507125034 18 222 1.6 12.9 0.00 0.00 0.00 47 1012.0
20260507124605 18 319 3.2 12.9 0.00 0.00 0.00 47 1012.0
20260507124036 18 315 4.8 12.9 0.00 0.00 0.00 46 1012.1
20260507123535 18 286 3.2 12.9 0.00 0.00 0.00 48 1012.2
20260507123057 19 281 3.2 12.9 0.00 0.00 0.00 47 1012.1
20260507122536 19 325 4.8 12.9 0.00 0.00 0.00 47 1012.2
20260507122035 19 176 6.4 12.9 0.00 0.00 0.00 47 1012.1
20260507121550 19 314 4.8 12.9 0.00 0.00 0.00 47 1012.2
20260507121036 19 250 3.2 17.7 0.00 0.00 0.00 49 1012.2
20260507120534 18 220 4.8 17.7 0.00 0.00 0.00 48 1012.3
20260507120051 18 263 6.4 17.7 0.00 0.00 0.00 47 1012.4
20260507115534 18 302 3.2 16.1 0.00 0.00 0.00 49 1012.3
20260507115035 18 265 6.4 17.7 0.00 0.00 0.00 49 1012.3
20260507114549 18 212 6.4 17.7 0.00 0.00 0.00 50 1012.4
20260507114038 18 232 6.4 20.9 0.00 0.00 0.00 50 1012.4
20260507113535 18 194 8.0 20.9 0.00 0.00 0.00 50 1012.5
20260507113047 18 242 12.9 20.9 0.00 0.00 0.00 50 1012.4
20260507112535 18 246 8.0 16.1 0.00 0.00 0.00 51 1012.6
20260507112035 18 291 6.4 16.1 0.00 0.00 0.00 51 1012.4
20260507111548 18 355 4.8 12.9 0.00 0.00 0.00 51 1012.5
20260507111036 18 270 6.4 17.7 0.00 0.00 0.00 51 1012.6
20260507110535 18 244 6.4 17.7 0.00 0.00 0.00 52 1012.7
20260507110046 18 152 6.4 19.3 0.00 0.00 0.00 51 1012.7
20260507105536 18 225 4.8 19.3 0.00 0.00 0.00 52 1012.8
20260507105034 17 219 6.4 17.7 0.00 0.00 0.00 52 1012.8
20260507104553 17 317 6.4 17.7 0.00 0.00 0.00 52 1013.0
20260507104036 17 267 4.8 20.9 0.00 0.00 0.00 53 1013.1
20260507103533 17 240 6.4 20.9 0.00 0.00 0.00 54 1013.1
20260507103046 17 257 8.0 16.1 0.00 0.00 0.00 53 1013.2
20260507102534 17 257 9.7 16.1 0.00 0.00 0.00 53 1013.2
20260507102036 17 220 6.4 16.1 0.00 0.00 0.00 53 1013.2
20260507101549 17 221 4.8 17.7 0.00 0.00 0.00 53 1013.3
20260507101036 17 294 6.4 24.1 0.00 0.00 0.00 54 1013.2
20260507100533 17 211 8.0 24.1 0.00 0.00 0.00 54 1013.3
20260507100048 17 205 6.4 19.3 0.00 0.00 0.00 54 1013.2
20260507095535 17 206 4.8 19.3 0.00 0.00 0.00 53 1013.2
20260507095035 17 229 9.7 19.3 0.00 0.00 0.00 52 1013.2
20260507094552 17 205 3.2 16.1 0.00 0.00 0.00 53 1013.0
20260507094036 17 313 4.8 20.9 0.00 0.00 0.00 53 1013.0
20260507093535 17 261 6.4 24.1 0.00 0.00 0.00 53 1013.0
20260507093045 17 259 11.3 24.1 0.00 0.00 0.00 53 1013.1
20260507092536 16 242 11.3 22.5 0.00 0.00 0.00 53 1013.1
20260507092039 16 256 6.4 16.1 0.00 0.00 0.00 53 1013.1
20260507091550 16 278 6.4 16.1 0.00 0.00 0.00 53 1013.0
20260507091037 16 335 4.8 12.9 0.00 0.00 0.00 55 1012.9
20260507090536 16 326 4.8 14.5 0.00 0.00 0.00 54 1012.9
20260507090046 16 0 6.4 29.0 0.00 0.00 0.00 54 1012.8
20260507085536 16 227 11.3 29.0 0.00 0.00 0.00 54 1012.8
20260507085036 16 350 11.3 22.5 0.00 0.00 0.00 53 1012.7
20260507084553 16 187 9.7 25.7 0.00 0.00 0.00 54 1012.6
20260507084037 16 266 12.9 25.7 0.00 0.00 0.00 54 1012.5
20260507083535 16 254 11.3 27.4 0.00 0.00 0.00 54 1012.3
20260507083056 16 232 8.0 27.4 0.00 0.00 0.00 54 1012.2
20260507082538 16 210 6.4 25.7 0.00 0.00 0.00 54 1012.2
20260507082039 16 348 6.4 25.7 0.00 0.00 0.00 55 1012.1
20260507081547 16 236 12.9 24.1 0.00 0.00 0.00 54 1012.0
20260507081040 16 319 9.7 20.9 0.00 0.00 0.00 55 1012.1
20260507080537 16 296 9.7 20.9 0.00 0.00 0.00 55 1012.0
20260507080107 16 252 9.7 19.3 0.00 0.00 0.00 56 1012.0
20260507075536 15 338 8.0 20.9 0.00 0.00 0.00 56 1012.0
20260507075036 15 307 4.8 25.7 0.00 0.00 0.00 57 1012.1
20260507074546 15 312 8.0 25.7 0.00 0.00 0.00 57 1012.1
20260507074036 15 272 11.3 32.2 0.00 0.00 0.00 57 1012.0
20260507073536 15 266 16.1 32.2 0.00 0.00 0.00 57 1011.9
20260507073050 15 295 9.7 29.0 0.00 0.00 0.00 57 1011.8
20260507072536 15 242 8.0 19.3 0.00 0.00 0.00 58 1011.7
20260507072037 15 269 8.0 19.3 0.00 0.00 0.00 58 1011.6
20260507071600 15 346 4.8 25.7 0.00 0.00 0.00 59 1011.6
20260507071034 15 333 8.0 25.7 0.00 0.00 0.00 60 1011.5
20260507070535 15 299 8.0 24.1 0.00 0.00 0.00 60 1011.5
20260507070051 15 314 8.0 24.1 0.00 0.00 0.00 60 1011.5
20260507065535 15 306 8.0 25.7 0.00 0.00 0.00 60 1011.4
20260507065034 14 321 6.4 25.7 0.00 0.00 0.00 61 1011.5
20260507064555 14 293 9.7 22.5 0.00 0.00 0.00 61 1011.5
20260507064036 14 319 11.3 22.5 0.00 0.00 0.00 61 1011.5
20260507063536 14 316 11.3 20.9 0.00 0.00 0.00 61 1011.3
20260507063055 14 313 8.0 22.5 0.00 0.00 0.00 61 1011.4
20260507062536 14 225 12.9 22.5 0.00 0.00 0.00 61 1011.4
20260507062036 14 292 9.7 30.6 0.00 0.00 0.00 61 1011.2
20260507061547 14 255 14.5 30.6 0.00 0.00 0.00 61 1011.2
20260507061036 14 252 14.5 30.6 0.00 0.00 0.00 61 1011.2
20260507060536 14 316 9.7 29.0 0.00 0.00 0.00 61 1011.2
20260507060054 14 335 12.9 29.0 0.00 0.00 0.00 61 1011.0
20260507055538 14 320 11.3 29.0 0.00 0.00 0.00 61 1010.8
20260507055037 14 255 12.9 29.0 0.00 0.00 0.00 61 1010.9
20260507054558 14 259 9.7 27.4 0.00 0.00 0.00 61 1010.9
20260507054036 14 269 12.9 27.4 0.00 0.00 0.00 62 1010.7
20260507053536 14 259 16.1 30.6 0.00 0.00 0.00 62 1010.6
20260507053049 14 288 12.9 30.6 0.00 0.00 0.00 62 1010.7
20260507052536 14 282 14.5 29.0 0.00 0.00 0.00 62 1010.6
20260507052036 14 338 12.9 24.1 0.00 0.00 0.00 62 1010.5
20260507051549 14 208 9.7 29.0 0.00 0.00 0.00 62 1010.5
20260507051035 14 246 12.9 29.0 0.00 0.00 0.00 62 1010.5
20260507050535 14 313 12.9 35.4 0.00 0.00 0.00 62 1010.5
20260507050047 14 318 14.5 35.4 0.00 0.00 0.00 62 1010.3
20260507045536 14 290 11.3 27.4 0.00 0.00 0.00 62 1010.3
20260507045036 14 246 12.9 29.0 0.00 0.00 0.00 62 1010.5
20260507044546 14 339 16.1 33.8 0.00 0.00 0.00 62 1010.1
20260507044038 14 351 16.1 33.8 0.00 0.00 0.00 63 1010.0
20260507043536 14 273 14.5 27.4 0.00 0.00 0.00 63 1010.1
20260507043047 14 276 12.9 29.0 0.00 0.00 0.00 63 1009.9
20260507042536 13 332 12.9 29.0 0.00 0.00 0.00 63 1009.8
20260507042035 14 316 12.9 29.0 0.00 0.00 0.00 63 1009.8
20260507041555 14 297 12.9 22.5 0.00 0.00 0.00 63 1009.7
20260507041036 13 288 9.7 22.5 0.00 0.00 0.00 63 1009.6
20260507040537 13 313 9.7 22.5 0.00 0.00 0.00 63 1009.6
20260507040058 13 268 11.3 25.7 0.00 0.00 0.00 63 1009.5
20260507035536 14 325 8.0 25.7 0.00 0.00 0.00 63 1009.5
20260507035036 14 323 12.9 25.7 0.00 0.00 0.00 63 1009.6
20260507034555 14 278 12.9 29.0 0.00 0.00 0.00 63 1009.7
20260507034035 14 298 12.9 29.0 0.00 0.00 0.00 63 1009.6
20260507033535 14 273 9.7 25.7 0.00 0.00 0.00 63 1009.5
20260507033047 14 279 11.3 27.4 0.00 0.00 0.00 63 1009.7
20260507032539 14 293 12.9 27.4 0.00 0.00 0.00 63 1009.5
20260507032036 14 305 14.5 27.4 0.00 0.00 0.00 63 1009.5
20260507031543 14 329 12.9 24.1 0.00 0.00 0.00 63 1009.5
20260507031035 14 317 11.3 22.5 0.00 0.00 0.00 64 1009.5
20260507030537 14 342 14.5 22.5 0.00 0.00 0.00 64 1009.4
20260507030053 14 275 9.7 25.7 0.00 0.00 0.00 64 1009.4
20260507025537 14 313 14.5 25.7 0.00 0.00 0.00 64 1009.3
20260507025036 14 267 12.9 25.7 0.00 0.00 0.00 64 1009.2
20260507024551 14 328 12.9 25.7 0.00 0.00 0.00 64 1009.3
20260507024037 14 292 9.7 24.1 0.00 0.00 0.00 65 1009.2
20260507023535 14 303 12.9 24.1 0.00 0.00 0.00 65 1009.1
20260507023047 15 297 11.3 24.1 0.00 0.00 0.00 65 1009.3
20260507022535 15 341 12.9 24.1 0.00 0.00 0.00 65 1009.3
20260507022037 15 275 11.3 22.5 0.00 0.00 0.00 65 1009.2
20260507021548 15 292 12.9 24.1 0.00 0.00 0.00 65 1009.3
20260507021037 15 311 12.9 24.1 0.00 0.00 0.00 65 1009.3
20260507020536 15 324 12.9 24.1 0.00 0.00 0.00 65 1009.2
20260507020101 15 304 9.7 25.7 0.00 0.00 0.00 65 1009.1
20260507015536 15 308 14.5 29.0 0.00 0.00 0.00 65 1008.9
20260507015036 15 360 12.9 29.0 0.00 0.00 0.00 65 1009.0
20260507014601 15 313 14.5 29.0 0.00 0.00 0.00 65 1008.9
20260507014036 15 281 12.9 25.7 0.00 0.00 0.00 65 1009.0
20260507013538 15 286 12.9 25.7 0.00 0.00 0.00 65 1008.9
20260507013047 15 328 9.7 29.0 0.00 0.00 0.00 65 1009.0
20260507012535 15 283 8.0 29.0 0.00 0.00 0.00 65 1008.9
20260507012035 15 323 9.7 24.1 0.00 0.00 0.00 65 1008.9
20260507011556 15 268 9.7 29.0 0.00 0.00 0.00 65 1008.8
20260507011036 15 291 12.9 29.0 0.00 0.00 0.00 65 1008.7
20260507010536 15 338 11.3 27.4 0.00 0.00 0.00 65 1008.7
20260507010046 15 321 16.1 27.4 0.00 0.00 0.00 65 1008.7
20260507005536 15 244 9.7 24.1 0.00 0.00 0.00 65 1008.8
20260507005039 15 270 12.9 30.6 0.00 0.00 0.00 64 1008.7
20260507004551 15 232 11.3 30.6 0.00 0.00 0.00 64 1008.7
20260507004035 15 280 12.9 33.8 0.00 0.00 0.00 63 1008.7
20260507003539 16 273 16.1 33.8 0.00 0.00 0.00 63 1008.6
20260507003043 16 248 12.9 25.7 0.00 0.00 0.00 63 1008.5
20260507002535 16 5 11.3 22.5 0.00 0.00 0.00 63 1008.5
20260507002035 16 355 9.7 22.5 0.00 0.00 0.00 63 1008.5
20260507001612 16 340 11.3 22.5 0.00 0.00 0.00 63 1008.3
20260507001034 16 317 8.0 22.5 0.00 0.00 0.00 63 1008.5
20260507000539 16 226 6.4 22.5 0.00 0.00 0.00 63 1008.3
20260507000100 16 291 9.7 24.1 0.00 0.00 0.00 63 1008.3
20260506235536 16 288 6.4 24.1 0.00 0.00 0.00 63 1008.2
20260506235036 16 290 12.9 24.1 0.00 0.00 0.00 63 1008.1
20260506234558 16 0 8.0 29.0 0.00 0.00 0.00 64 1008.3
20260506234036 16 262 14.5 29.0 0.00 0.00 0.00 65 1008.2
20260506233537 16 290 11.3 24.1 0.00 0.00 0.00 66 1008.2
20260506233046 16 237 9.7 27.4 0.00 0.00 0.00 67 1008.3
20260506232536 16 260 11.3 29.0 0.00 0.00 0.00 68 1008.1
20260506232035 16 300 9.7 29.0 0.00 0.00 0.00 68 1008.1
20260506231552 16 223 14.5 29.0 0.00 0.00 0.00 68 1008.0
20260506231036 16 298 11.3 25.7 0.00 0.00 0.00 68 1008.0
20260506230539 16 313 9.7 30.6 0.00 0.00 0.00 67 1008.0
20260506230054 16 325 11.3 30.6 0.00 0.00 0.00 66 1008.0
20260506225535 16 239 12.9 29.0 0.00 0.00 0.00 66 1007.9
20260506225036 16 278 9.7 22.5 0.00 0.00 0.00 64 1007.7
20260506224552 17 315 11.3 22.5 0.00 0.00 0.00 63 1007.4
20260506224035 17 267 11.3 25.7 0.00 0.00 0.00 62 1007.3
20260506223535 17 290 11.3 25.7 0.00 0.00 0.00 61 1007.2
20260506223053 17 259 8.0 20.9 0.00 0.00 0.00 61 1007.0
20260506222536 17 214 11.3 20.9 0.00 0.00 0.00 61 1007.0
20260506222036 17 240 8.0 16.1 0.00 0.00 0.00 61 1007.0
20260506221553 17 209 4.8 14.5 0.00 0.00 0.00 61 1006.9
20260506221035 17 302 3.2 12.9 0.00 0.00 0.00 62 1006.8
20260506220536 17 302 4.8 12.9 0.00 0.00 0.00 62 1006.6
20260506220107 17 250 4.8 12.9 0.00 0.00 0.00 62 1006.6
20260506215537 17 220 3.2 9.7 0.00 0.00 0.00 63 1006.4
20260506215037 17 209 3.2 11.3 0.00 0.00 0.00 63 1006.3
20260506214550 17 171 3.2 11.3 0.00 0.00 0.00 62 1006.1
20260506214036 17 161 1.6 11.3 0.00 0.00 0.00 62 1005.8
20260506213536 17 0 1.6 9.7 0.00 0.00 0.00 62 1005.7
20260506213057 17 124 0.0 9.7 0.00 0.00 0.00 62 1005.5
20260506212536 17 146 3.2 11.3 0.00 0.00 0.00 62 1005.5
20260506212036 17 145 3.2 11.3 0.00 0.00 0.00 61 1005.4
20260506211550 17 156 3.2 11.3 0.00 0.00 0.00 62 1005.3
20260506211036 17 165 3.2 12.9 0.00 0.00 0.00 62 1005.2
20260506210538 17 114 3.2 16.1 0.00 0.00 0.00 61 1005.2
20260506210057 17 113 1.6 16.1 0.00 0.00 0.00 61 1005.1
20260506205535 18 116 4.8 16.1 0.00 0.00 0.00 61 1005.1
20260506205035 18 112 3.2 17.7 0.00 0.00 0.00 61 1005.1
20260506204550 18 119 4.8 17.7 0.00 0.00 0.00 60 1005.1
20260506204035 18 142 8.0 17.7 0.00 0.00 0.00 60 1005.1
20260506203535 18 113 4.8 17.7 0.00 0.00 0.00 60 1005.1
20260506203137 18 117 3.2 19.3 0.00 0.00 0.00 60 1005.0
20260506202535 18 126 6.4 19.3 0.00 0.00 0.00 59 1005.0
20260506202035 18 139 6.4 19.3 0.00 0.00 0.00 59 1005.0
20260506201548 18 140 8.0 19.3 0.00 0.00 0.00 59 1004.9
20260506201035 18 119 4.8 20.9 0.00 0.00 0.00 59 1004.8
20260506200537 18 126 6.4 20.9 0.00 0.00 0.00 58 1004.8
20260506200052 18 148 6.4 20.9 0.00 0.00 0.00 58 1004.9
20260506195536 18 117 4.8 19.3 0.00 0.00 0.00 58 1004.7
20260506195036 18 123 8.0 19.3 0.00 0.00 0.00 58 1004.7
20260506194549 18 142 4.8 20.9 0.00 0.00 0.00 58 1004.7
20260506194035 18 123 8.0 20.9 0.00 0.00 0.00 57 1004.5
20260506193534 18 127 9.7 24.1 0.00 0.00 0.00 57 1004.5
20260506193047 19 119 8.0 24.1 0.00 0.00 0.00 57 1004.5
20260506192534 19 159 6.4 19.3 0.00 0.00 0.00 57 1004.5
20260506192034 19 117 6.4 24.1 0.00 0.00 0.00 57 1004.4
20260506191551 19 144 6.4 24.1 0.00 0.00 0.00 56 1004.4
20260506191035 19 118 8.0 25.7 0.00 0.00 0.00 56 1004.4
20260506190535 19 127 8.0 25.7 0.00 0.00 0.00 56 1004.2
20260506190050 19 135 8.0 25.7 0.00 0.00 0.00 56 1004.0